Location: Gull Harbor
(47.1000°N, 122.9000°W)
Time: 10:40:15
(UTC-08:00)

N. Korean satellite - Pass Details

Date: 17 January 2018
Orbit: 459 x 514 km, 97.2° (Epoch: 22 February)

Event Time Altitude Azimuth Distance (km) Brightness Sun altitude
Rises 18:44:01 0° 193° (SSW) 2,573 10.6 -18.6°
Reaches altitude 10° 18:46:21 10° 206° (SSW) 1,686 9.8 -19.0°
Maximum altitude 18:49:25 26° 265° (W) 1,001 8.9 -19.5°
Drops below altitude 10° 18:52:29 10° 323° (NW) 1,672 9.6 -20.0°
Sets 18:54:47 0° 337° (NNW) 2,546 10.4 -20.4°
